Flag for U.S.A. Weather past 2 weeks in Huntsville, Alabama, U.S.A.

Now
60 °F

Thunderstorms. Overcast.


Feels Like: 60 °F
Forecast: 54 / 76 °F
Wind: 6 mph from Southwest

Location: Huntsville International / Jones Field

Current Time: Apr 1, 2015 at 1:05:06 AM

Latest Report: Mar 31, 2015 at 11:53 PM


Visibility: 10 mi

Pressure: 29.96 "Hg

Humidity: 86%

Dew point: 56 °F

Location of HuntsvilleLocation

Historic Weather in Huntsville — Graph

°F

Huntsville temperature yesterday

Maximum temperature yesterday: 76 °F (at 2:53 PM)
Minimum temperature yesterday: 46 °F (at 5:53 AM)
Average temperature yesterday: 61 °F

Past Weeks' High & Low Weather Summary

 TemperatureHumidityPressure
High80 °F (Mar 17, 3:53 PM)97% (Mar 30, 7:53 AM)30.37 "Hg (Mar 30, 7:53 AM)
Low29 °F (Mar 29, 4:53 AM)28% (Mar 28, 3:53 PM)29.76 "Hg (Mar 26, 3:53 PM)
Average57 °F67%30.07 "Hg
* Reported Mar 16 11:53 PM — Mar 31 11:53 PM, Huntsville, Weather by CustomWeather, © 2015

Note: Actual official high and low records may vary slightly from our data, if they occured in-between our weather recording intervals... More about our weather records

Advertising

Huntsville weather history for previous 24 hours

 ConditionsComfort  
Time TempWeatherWind HumidityBarometerVisibility
11:53 PM
Tue, Mar 31
60 °FThunderstorms. Overcast.6 mph86%29.96 "Hg10 mi
10:53 PM62 °FThunderstorms. Mostly cloudy.9 mph90%29.93 "Hg9 mi
9:53 PM62 °FThunderstorms. Mostly cloudy.No wind93%29.91 "Hg10 mi
8:53 PM65 °FThunderstorms. Mostly cloudy.12 mph78%29.97 "Hg5 mi
7:59 PM68 °FThunderstorms. Overcast.No wind76%29.94 "Hg6 mi
6:53 PM69 °FBroken clouds.3 mph70%29.90 "Hg10 mi
5:53 PM73 °FLight rain. Broken clouds.6 mph62%29.90 "Hg10 mi
4:53 PM75 °FPartly sunny.7 mph58%29.90 "Hg10 mi
3:53 PM76 °FPartly sunny.12 mph58%29.90 "Hg10 mi
2:53 PM76 °FBroken clouds.12 mph60%29.93 "Hg10 mi
1:53 PM74 °FBroken clouds.7 mph62%29.95 "Hg10 mi
12:53 PM74 °FBroken clouds.9 mph57%29.99 "Hg10 mi
11:53 AM69 °FBroken clouds.12 mph59%30.02 "Hg10 mi
10:53 AM67 °FBroken clouds.6 mph59%30.03 "Hg10 mi
9:53 AM63 °FBroken clouds.3 mph58%30.04 "Hg10 mi
8:53 AM56 °FPartly sunny.5 mph70%30.05 "Hg10 mi
7:53 AM51 °FScattered clouds.3 mph80%30.05 "Hg10 mi
6:53 AM46 °FPassing clouds.No wind89%30.04 "Hg10 mi
5:53 AM46 °FPassing clouds.No wind83%30.04 "Hg10 mi
4:53 AM48 °FClear.3 mph77%30.03 "Hg10 mi
3:53 AM47 °FClear.5 mph83%30.03 "Hg10 mi
2:53 AM48 °FClear.3 mph80%30.04 "Hg10 mi
1:53 AM49 °FClear.3 mph77%30.06 "Hg10 mi
Weather by CustomWeather, © 2015

See weather overviewHow to use our weather pages